Temp
22 23 22 21 21 17 18 20 18 20 18 17 17 17 16 15 17 17 14 15 15 15 15 15 15 15 15 15 16 16 16 16 16 16 16 16 16 16 16 16 17 17 17 17 17 17 17 17 18
23 22 22 15 18 18 18 19 19 19 17 15 16 16 16 16 15 15 14 14 14 14 14 14 14 14 14 15 15 15 15 15 15 15 15 15 16 16 16 16 16 16 16 16 16 17 17 17 17
22 22 18 15 15 17 18 19 19 19 15 18 16 15 16 15 15 14 14 14 15 15 14 14 14 14 14 14 14 14 14 13 13 14 14 14 14 14 15 15 15 15 15 16 16 16 16 17 17
22 19 15 17 19 19 19 19 19 18 17 16 15 14 14 13 14 14 14 14 15 14 14 13 13 13 13 13 13 13 13 13 12 12 13 13 13 13 13 13 14 14 14 15 15 15 16 16 16
20 15 16 17 19 19 19 19 17 19 18 16 16 13 13 13 13 14 14 14 14 14 14 13 12 12 12 12 12 12 12 12 12 12 11 11 12 12 12 12 12 13 13 14 14 14 15 15 16
17 15 17 18 19 19 19 19 18 18 17 15 13 13 13 13 13 12 13 13 13 13 13 14 14 13 11 11 11 11 11 11 11 11 11 12 13 12 11 11 11 12 12 12 13 13 14 14 14
18 16 17 16 17 19 19 18 17 17 17 17 13 13 12 12 12 12 13 13 13 13 13 13 13 13 13 13 13 13 12 12 12 12 12 12 12 13 12 12 10 10 11 11 11 11 12 12 13
14 14 16 16 16 19 19 19 16 18 17 14 14 12 12 12 12 12 12 13 13 12 13 12 12 13 13 12 12 12 12 12 12 12 12 12 12 12 12 12 11 9 9 10 10 10 11 11 11
16 16 16 17 16 19 18 19 17 15 15 14 13 12 13 13 11 12 12 12 12 12 12 12 12 12 12 12 11 11 11 11 11 11 10 11 11 11 11 11 11 11 10 11 10 11 11 12 12
16 16 18 16 16 18 17 18 16 17 15 14 12 10 11 11 11 11 11 10 11 11 11 11 11 11 11 11 11 11 10 10 10 10 10 10 10 10 10 10 10 10 10 10 11 11 11 11 11
16 18 17 17 17 17 16 17 16 14 15 13 13 10 10 10 11 10 10 10 10 10 10 10 11 11 11 10 10 10 10 10 10 9 9 9 9 9 9 9 9 9 9 10 10 10 10 10 10
19 16 17 17 17 17 17 15 16 15 17 15 12 11 11 10 10 10 10 10 10 10 10 10 10 10 10 10 10 9 10 9 9 8 8 8 8 8 8 8 8 8 8 8 8 9 9 9 10
17 17 17 17 17 16 15 17 16 15 15 12 12 11 10 10 10 10 10 9 9 10 10 9 9 10 9 10 9 9 9 8 8 8 8 8 7 7 7 7 7 7 7 7 7 7 7 8 8
16 16 16 17 17 17 17 16 16 15 12 11 12 10 9 9 9 9 9 9 10 9 9 9 9 9 9 9 9 8 8 7 8 7 7 6 6 6 6 6 6 6 5 5 6 6 6 6 7
15 17 17 17 17 17 16 16 14 14 11 11 10 9 9 9 9 9 10 10 10 9 9 9 9 9 9 8 8 8 8 8 7 7 7 6 5 5 5 5 5 4 4 4 4 5 5 5 5
16 16 17 17 16 16 17 15 15 11 11 10 9 9 9 8 9 10 10 10 9 9 9 9 9 8 8 8 8 8 8 7 7 6 6 5 5 4 4 3 4 3 3 3 3 3 3 4 4
15 16 16 17 15 16 15 15 15 11 11 9 8 8 8 8 8 9 9 9 9 9 9 8 8 8 8 8 8 7 7 6 6 5 4 4 3 3 2 2 2 2 2 2 2 2 2 2 3
16 16 16 16 16 15 14 13 14 11 10 9 8 7 7 7 7 9 9 9 9 9 8 8 8 8 8 7 7 7 6 6 5 4 3 3 2 2 2 2 1 1 1 1 1 1 2 2 2
16 16 17 16 15 15 13 12 13 11 9 8 7 7 7 6 8 9 9 9 8 8 8 8 8 8 7 7 6 5 5 5 4 3 3 2 1 1 1 0 -0 -0 -0 -0 0 0 0 1 2
16 17 16 15 15 14 13 13 13 11 10 10 9 8 7 6 6 7 8 8 8 8 8 7 7 7 7 5 4 4 3 3 2 2 2 1 1 1 -0 -1 -1 -1 -1 -1 -0 -0 -0 -0 0
15 15 15 16 14 13 11 12 12 11 10 8 8 8 7 7 6 6 7 8 8 7 7 7 7 7 6 4 4 4 3 2 1 1 1 0 0 -0 -1 -1 -1 -2 -2 -1 -1 -1 -1 -1 -1
16 14 14 14 13 14 12 14 13 11 9 9 7 6 7 6 6 6 7 7 7 8 7 6 7 6 5 4 3 2 1 0 0 -0 -0 -1 -1 -1 -1 -2 -2 -2 -2 -2 -2 -2 -1 -1 -2
15 13 13 13 12 12 12 12 12 10 10 9 8 7 7 7 7 6 7 8 8 7 6 6 6 5 4 3 2 2 1 0 0 -0 -1 -1 -2 -2 -2 -2 -3 -3 -3 -3 -2 -2 -2 -2 -2
11 12 10 9 9 10 12 12 13 12 12 12 9 7 7 6 6 7 8 8 7 6 6 6 5 4 3 3 2 1 0 -0 -1 -1 -2 -3 -3 -3 -3 -3 -3 -3 -4 -4 -3 -3 -3 -2 -2
13 12 12 12 10 13 11 10 14 14 11 12 11 7 7 6 6 6 5 5 5 5 5 5 4 3 3 2 1 0 -0 -1 -1 -2 -3 -3 -4 -4 -4 -4 -4 -4 -4 -4 -4 -3 -3 -3 -3
11 13 11 15 12 12 10 11 15 12 11 10 10 8 6 6 6 5 5 5 5 5 4 4 3 3 2 1 0 -0 -1 -1 -2 -3 -3 -3 -4 -4 -4 -4 -4 -4 -4 -4 -4 -4 -4 -3 -3
12 12 12 10 8 8 11 11 13 10 10 10 10 7 6 6 6 5 4 4 4 4 3 3 2 1 1 -0 -1 -1 -1 -2 -3 -3 -3 -4 -4 -5 -5 -5 -5 -5 -5 -5 -4 -4 -4 -3 -3
12 11 12 10 13 13 11 10 14 13 9 9 9 8 7 6 5 3 3 3 3 3 2 2 1 0 -0 -1 -1 -2 -2 -2 -3 -3 -4 -4 -4 -5 -5 -5 -5 -6 -6 -5 -5 -5 -4 -4 -4
11 11 10 10 10 11 9 13 11 12 11 9 8 8 7 6 3 2 1 2 2 1 1 0 -0 -1 -1 -2 -2 -2 -3 -3 -4 -4 -4 -5 -5 -5 -5 -6 -6 -6 -6 -6 -6 -6 -5 -4 -4
11 11 11 11 12 6 5 10 11 11 10 8 8 8 6 4 2 1 0 1 0 0 -0 -1 -1 -2 -2 -2 -3 -3 -4 -4 -4 -5 -5 -5 -6 -6 -6 -6 -6 -7 -7 -7 -6 -6 -6 -5 -5
Height
790 786 785 787 814 829 846 837 834 829 833 828 827 829 837 843 844 853 850 848 848 846 843 842 839 837 837 836 834 832 831 829 828 827 826 825 823 822 820 819 818 817 816 815 813 812 812 811 809
785 786 788 802 831 846 849 833 831 828 830 833 831 834 841 848 844 847 849 849 847 846 843 842 841 840 839 837 835 834 832 831 830 828 826 825 824 822 821 820 818 816 815 814 813 811 810 810 809
786 787 799 823 846 850 846 832 828 827 830 828 835 838 841 849 847 847 849 848 846 845 843 843 842 842 840 838 837 835 832 831 830 829 828 826 824 822 822 820 819 817 815 813 812 810 809 808 807
788 790 806 831 836 832 830 828 826 831 831 830 835 844 844 847 846 847 848 848 847 845 845 845 844 843 842 840 839 837 835 834 832 831 829 828 825 824 822 820 819 817 815 813 811 809 807 806 805
786 798 827 838 833 828 826 823 828 828 831 833 831 846 848 849 848 848 848 848 847 847 846 845 845 844 843 841 840 838 836 835 833 831 829 828 826 824 822 820 819 817 815 813 810 808 807 805 803
799 807 833 841 834 826 825 823 824 827 829 834 838 846 850 849 849 849 849 848 848 848 847 846 846 845 844 843 840 839 838 836 833 831 830 828 826 824 823 820 819 817 815 813 810 807 804 802 800
804 820 833 838 838 831 825 822 827 829 831 832 836 847 850 849 849 849 849 849 849 849 848 848 847 846 844 843 841 840 839 837 834 832 831 829 827 824 823 820 819 816 814 811 808 805 802 800 797
807 821 837 838 841 830 821 822 825 826 832 832 833 845 849 844 847 849 849 849 850 850 849 848 848 846 845 844 843 841 839 837 836 834 832 831 828 825 823 821 818 815 814 810 807 804 801 796 794
803 828 839 832 836 822 821 823 824 826 830 831 833 834 833 840 846 849 849 851 851 850 849 849 848 847 846 844 844 842 840 839 837 836 834 832 828 826 824 821 818 815 812 809 805 802 799 795 792
812 828 824 820 821 820 820 819 824 827 831 833 836 836 836 841 845 847 849 850 851 850 850 849 849 847 846 846 844 843 841 840 838 836 833 830 828 826 824 821 818 815 811 808 804 801 797 794 790
814 820 817 815 814 816 820 822 823 830 833 830 832 837 839 841 844 846 849 850 850 851 850 850 849 849 848 847 845 843 842 840 838 835 832 830 827 825 822 819 816 812 809 805 801 797 795 792 789
814 816 815 815 814 816 821 822 824 825 822 820 824 830 836 840 843 845 847 849 850 850 850 850 850 849 848 847 845 843 841 840 837 835 832 830 827 824 821 818 815 811 807 804 800 795 792 788 786
814 816 815 815 816 817 819 820 822 822 820 821 826 832 835 839 842 844 846 848 849 849 850 850 850 849 848 846 845 844 842 840 838 836 833 830 827 824 821 817 814 810 807 803 797 793 789 785 781
816 818 818 816 816 817 820 823 822 819 820 824 826 831 834 837 840 843 845 846 847 849 849 849 848 848 847 846 845 844 842 840 838 836 833 831 828 825 821 816 812 808 805 801 796 792 788 783 779
816 819 818 818 817 818 819 824 822 816 821 825 827 830 833 836 839 840 841 844 846 847 848 848 847 847 847 846 845 843 841 840 838 835 833 830 827 824 820 816 811 807 803 798 794 790 786 781 775
820 823 828 816 817 817 819 825 814 818 821 826 828 830 832 834 836 838 840 842 844 845 846 846 846 846 847 846 844 842 841 839 837 834 832 829 826 822 818 814 809 806 801 797 793 788 783 778 773
829 830 829 818 818 818 822 821 811 818 821 826 828 829 831 834 836 836 838 840 842 843 844 844 845 845 845 844 843 842 840 838 835 833 830 827 824 820 816 811 807 803 799 795 791 787 783 776 770
826 828 824 822 817 820 823 819 813 818 821 824 827 830 830 831 831 833 836 838 840 841 842 842 843 843 843 843 842 840 839 836 833 831 828 824 821 817 813 809 805 801 797 793 789 784 780 776 770
816 820 818 815 816 819 820 817 809 812 819 824 826 827 827 828 829 832 834 836 838 839 839 840 841 841 841 840 839 837 836 834 832 829 825 822 818 815 811 807 803 800 796 792 789 785 779 774 770
813 816 819 817 818 820 820 813 803 805 805 808 812 818 821 826 828 829 831 833 834 836 838 839 838 839 840 840 839 838 836 833 829 826 823 820 816 812 808 805 801 798 793 789 785 781 776 772 770
815 818 817 817 821 824 827 814 800 799 800 805 807 808 814 817 821 825 827 829 832 833 835 836 837 838 839 839 837 836 832 829 826 823 819 816 813 810 806 801 797 794 790 786 782 778 775 770 767
815 813 816 819 824 828 825 823 796 800 803 803 805 808 808 812 817 819 822 825 828 830 833 834 835 836 837 836 835 832 829 825 822 819 816 811 808 805 802 797 794 791 787 783 780 776 773 769 765
810 815 819 823 832 834 828 833 797 803 797 796 797 800 802 805 810 814 817 821 824 828 830 832 833 835 835 834 832 829 826 823 819 815 811 807 804 801 798 796 791 787 783 779 777 772 769 767 763
820 823 831 843 844 846 822 826 796 792 782 778 786 792 796 801 806 810 814 818 822 825 828 829 831 833 832 831 828 825 822 819 815 811 807 803 799 796 793 791 787 783 780 775 772 768 766 763 759
816 824 836 838 850 822 825 836 786 772 779 775 777 787 791 796 802 807 811 814 818 823 826 827 830 830 829 827 825 822 820 817 812 808 804 800 795 792 788 786 783 779 775 770 768 765 762 759 755
819 816 829 822 835 828 831 817 772 774 776 778 780 783 789 794 798 803 807 812 817 821 823 826 827 826 826 824 822 820 817 814 810 806 802 798 794 789 787 783 779 774 770 765 763 760 757 754 751
814 817 815 834 851 857 814 800 771 778 778 779 781 785 789 792 797 801 807 812 816 819 822 823 824 824 824 822 819 815 812 809 804 801 797 792 788 785 782 778 774 768 764 761 758 755 752 749 746
804 809 819 831 820 816 810 812 775 768 779 782 784 785 789 792 797 803 807 811 815 817 820 822 823 822 820 818 815 811 808 805 801 796 792 788 783 779 775 772 768 763 759 756 753 749 747 744 741
809 809 813 815 820 821 834 788 773 767 770 777 781 783 787 792 799 803 807 811 814 817 819 820 820 819 816 814 811 808 805 801 797 793 788 784 778 775 770 767 763 758 754 751 748 745 741 738 736
794 796 800 807 807 845 851 801 767 769 771 775 778 782 786 792 798 803 807 810 814 816 817 817 817 816 813 810 808 805 801 797 793 789 783 778 774 770 766 762 758 753 749 746 743 740 737 733 731
Wind_Speed
7 7 5 5 4 5 2 1 2 1 3 5 2 5 8 4 2 3 6 10 9 12 15 17 18 20 19 18 19 21 21 20 20 19 19 18 18 17 16 15 14 13 13 14 13 13 13 13 12
7 4 4 3 5 4 3 2 2 1 6 8 6 4 5 3 3 4 1 7 9 11 13 17 17 18 18 20 20 20 21 21 20 18 18 21 20 20 18 18 19 17 15 15 14 14 15 14 14
3 3 4 4 3 4 4 3 3 2 6 1 4 5 3 1 2 3 5 6 7 10 13 16 17 17 18 19 19 19 21 21 21 21 21 20 20 20 20 20 18 18 17 18 17 16 16 15 16
1 5 4 5 3 2 3 4 3 5 2 4 4 6 3 4 1 6 6 6 6 11 11 15 16 16 17 18 18 19 21 21 21 20 20 20 20 21 20 18 17 19 18 17 18 18 18 17 17
5 3 5 4 1 1 1 2 7 3 4 2 1 4 3 3 12 11 9 8 11 12 11 13 15 16 17 17 18 19 20 21 21 21 21 21 21 20 20 19 19 19 20 19 20 20 19 19 19
4 3 4 3 2 1 2 2 5 2 2 3 6 5 3 10 11 11 11 12 12 12 11 12 12 13 16 16 17 18 19 19 20 21 21 21 21 20 20 19 20 20 19 19 20 20 19 19 19
6 4 4 5 5 1 4 4 5 5 4 2 8 5 3 6 11 12 13 13 12 12 11 11 12 13 13 15 16 17 17 19 20 21 21 22 21 21 21 20 20 20 20 21 20 21 21 20 21
4 5 4 3 6 4 4 3 6 3 2 4 4 6 5 10 16 16 14 13 13 13 12 12 12 13 15 15 16 16 18 20 20 20 21 21 21 22 22 22 22 22 21 22 22 22 22 21 21
3 5 3 6 7 3 4 4 1 1 6 2 1 4 4 29 20 16 14 12 12 13 13 12 13 13 14 16 17 18 19 19 20 21 22 22 24 23 24 23 23 23 23 23 23 23 23 23 22
4 4 8 5 5 5 6 4 6 4 3 1 3 7 24 28 22 18 13 11 10 11 12 12 12 14 15 17 17 18 19 20 20 22 23 24 23 24 23 24 24 25 26 26 25 24 23 23 24
2 4 5 3 4 5 7 4 3 8 4 6 8 11 15 20 17 16 12 10 10 10 11 11 12 13 14 15 16 17 18 19 20 22 24 24 24 25 26 28 28 28 28 28 29 29 27 26 25
4 1 2 4 3 4 6 7 4 4 3 3 11 20 15 12 14 16 15 12 11 10 11 11 11 12 13 13 15 16 18 19 22 23 24 26 26 27 28 29 29 29 29 29 28 28 28 27 27
3 4 2 2 3 3 6 3 5 5 2 6 16 13 10 11 15 14 14 12 10 10 10 10 8 10 12 12 14 15 17 19 20 22 22 23 24 26 28 29 29 28 28 28 28 27 28 28 28
3 3 3 2 3 3 4 2 0 5 5 8 12 10 8 13 17 17 15 12 9 9 9 7 8 9 10 11 13 15 16 18 19 20 21 21 22 24 27 29 30 30 29 28 27 27 28 28 29
5 4 1 2 2 2 4 4 8 4 7 9 8 8 8 12 19 18 17 14 11 10 8 5 6 7 9 10 12 15 17 17 19 20 22 22 24 25 28 29 31 30 30 30 29 29 28 29 29
4 4 2 2 5 1 4 8 4 6 9 9 8 7 8 8 18 17 16 14 12 11 8 5 4 6 8 9 12 14 16 17 19 21 22 23 26 25 28 29 29 28 29 29 29 29 30 29 29
4 3 4 3 6 3 5 7 2 6 7 8 8 8 8 7 12 17 17 14 13 10 8 4 2 4 7 9 11 14 16 18 20 23 21 26 24 25 25 26 25 27 27 27 27 28 27 28 30
6 4 4 4 4 4 4 13 4 7 7 10 8 7 8 9 10 20 18 15 13 11 8 5 1 3 6 9 12 15 17 21 21 23 24 26 24 26 27 26 26 26 27 28 28 27 27 24 25
4 4 4 3 2 3 8 10 11 10 7 9 9 10 10 10 11 19 18 16 14 12 9 7 2 3 7 11 15 18 21 22 23 20 23 24 24 26 24 24 25 23 23 24 24 23 23 23 21
3 4 5 2 1 1 5 15 12 9 11 14 16 14 13 7 7 16 19 18 17 13 11 8 3 2 6 9 10 13 16 16 22 19 24 25 28 27 24 24 24 24 24 24 23 22 22 18 17
4 5 4 4 2 2 6 8 5 2 3 7 8 11 10 15 12 10 19 22 18 15 14 10 5 3 6 8 10 15 18 20 18 25 27 27 28 26 26 24 24 24 24 25 23 20 19 19 19
4 3 4 3 3 4 2 6 6 3 6 6 8 10 12 12 8 10 16 21 20 16 14 10 5 3 5 8 11 14 14 17 20 23 27 29 26 27 25 23 23 23 23 23 23 19 23 23 19
4 3 3 2 3 3 2 1 7 1 6 10 12 12 13 13 13 12 17 24 20 15 14 9 4 4 6 8 12 14 16 19 23 27 30 30 28 27 25 24 24 24 23 23 24 25 25 22 22
6 5 6 4 3 1 3 4 6 5 6 3 4 11 12 12 10 11 19 18 15 13 12 7 4 4 6 10 13 17 19 22 25 28 29 27 27 27 26 24 24 24 25 23 25 24 24 23 23
3 4 2 4 2 5 2 2 11 4 6 4 4 8 10 10 9 8 9 14 16 14 10 5 4 5 8 12 16 18 21 22 25 27 28 29 26 26 27 25 25 26 26 25 24 23 25 23 23
6 6 5 6 3 4 3 7 6 3 1 2 4 4 8 8 7 8 11 15 15 12 8 4 3 6 10 14 17 19 21 23 24 26 27 28 28 29 28 26 28 27 27 25 24 24 25 21 22
5 5 3 6 3 3 4 7 8 3 3 2 1 3 7 8 7 7 10 14 14 11 6 2 3 7 12 16 18 21 22 24 26 27 27 27 27 26 25 28 29 27 26 25 23 23 22 22 20
3 5 3 2 3 5 5 6 7 4 7 6 5 6 6 5 6 6 11 15 12 9 5 1 5 10 15 17 20 22 24 26 26 26 27 27 27 28 29 29 28 27 25 24 23 22 23 22 20
4 3 2 2 4 5 1 6 6 5 6 10 9 8 7 7 7 7 12 14 12 7 3 4 9 14 16 20 23 25 27 26 26 26 27 28 28 28 29 29 27 27 26 25 23 23 23 20 18
3 6 7 4 5 1 3 7 1 2 4 6 8 7 5 7 7 8 13 13 9 5 4 8 12 15 19 23 25 26 27 27 27 28 29 29 30 29 29 28 28 27 26 25 24 23 22 21 21
Wind_Direction
328 333 1 46 59 66 66 74 272 151 58 336 66 110 114 45 58 155 94 51 41 42 40 37 33 33 31 26 28 32 31 27 26 20 12 7 8 7 5 359 350 344 341 336 332 329 325 320 311
343 350 60 74 82 65 284 275 130 214 155 154 81 82 56 76 58 93 17 37 45 47 46 41 35 37 36 36 37 35 33 31 25 15 15 15 14 12 9 8 10 2 348 340 331 323 316 311 311
339 20 76 90 99 139 175 204 183 51 132 30 91 49 92 66 88 101 88 65 49 50 50 47 42 40 40 41 41 37 34 31 28 27 24 18 11 8 2 1 349 351 348 352 343 328 319 310 308
164 31 41 77 102 204 185 168 164 118 131 73 136 70 60 351 353 120 108 76 60 57 61 55 48 48 47 45 42 41 38 35 32 30 25 19 19 18 13 8 0 359 352 346 337 338 333 324 311
49 60 61 81 109 200 196 199 163 150 139 90 75 138 71 49 117 118 105 88 73 70 68 64 54 52 50 49 46 42 39 36 33 29 28 22 20 17 13 10 3 358 355 352 351 344 330 325 320
43 92 70 155 215 274 274 220 144 108 90 141 78 102 160 145 133 113 105 89 85 79 67 60 57 54 52 51 48 42 36 32 30 27 23 20 17 15 11 8 6 2 359 348 344 345 335 326 322
107 76 147 139 179 225 217 144 154 139 119 148 145 107 165 161 139 125 110 101 90 84 80 70 62 54 48 43 38 34 32 29 25 24 21 17 16 14 10 5 4 1 356 351 349 344 338 329 322
96 87 104 197 188 231 187 121 132 118 141 117 143 173 191 184 148 127 114 101 94 87 79 73 66 57 52 48 44 39 35 32 28 25 21 16 13 13 9 4 2 0 355 349 346 344 340 333 327
119 70 167 196 154 208 170 133 66 107 114 90 25 153 195 153 147 134 117 107 97 85 77 71 64 60 56 51 45 40 37 30 25 22 19 14 12 7 6 4 359 355 352 348 345 341 336 330 324
79 116 210 178 185 180 166 141 151 108 118 66 57 55 131 148 152 141 138 120 103 90 78 70 66 61 55 51 42 36 31 25 18 11 6 3 1 359 355 353 352 350 348 345 342 339 337 333 329
124 170 172 208 200 150 142 127 139 138 226 198 181 154 148 151 157 149 141 129 116 97 85 73 65 60 51 40 30 25 17 11 6 4 1 357 353 351 350 348 347 345 341 340 339 338 338 335 332
88 138 183 186 163 139 165 132 167 196 225 198 161 159 155 156 159 157 148 144 131 106 85 80 70 54 41 30 25 21 17 15 13 8 2 359 355 352 350 348 347 345 342 339 335 333 331 329 327
101 178 123 80 120 115 124 176 207 222 178 112 133 154 157 155 160 161 155 148 131 109 105 89 61 45 38 34 33 26 19 12 7 1 358 354 350 344 340 339 339 338 336 336 334 331 327 325 324
113 109 115 186 156 148 158 200 175 219 131 130 150 163 160 162 163 157 162 154 144 134 124 95 62 46 37 35 31 24 13 7 1 359 357 354 347 340 337 334 333 333 333 333 332 330 327 322 322
132 95 19 214 184 182 150 249 230 175 146 155 163 161 155 160 168 171 170 164 161 152 142 108 63 43 31 28 23 12 5 357 354 351 347 344 342 339 335 333 332 333 331 330 330 327 326 322 322
74 63 141 233 154 142 122 265 235 165 148 172 168 161 158 168 178 178 175 172 165 159 155 128 71 39 25 14 6 359 354 350 347 345 343 342 341 338 336 335 334 332 329 328 327 329 327 326 323
5 215 207 292 200 138 173 267 250 165 166 179 182 176 170 166 182 184 183 179 174 171 167 150 80 33 7 354 350 347 346 345 346 344 343 342 341 338 336 332 329 329 326 326 327 325 326 323 322
200 218 227 230 227 178 220 256 236 205 179 194 191 186 186 184 195 188 186 183 182 182 182 175 146 2 347 339 336 335 341 345 345 343 341 342 340 337 334 329 327 328 324 324 324 324 323 321 320
143 187 215 223 177 199 245 263 248 212 198 196 200 199 200 200 198 192 191 189 190 194 196 196 204 328 332 335 338 342 344 340 338 338 338 337 337 336 334 332 327 327 324 321 320 320 320 320 330
161 171 240 282 134 179 298 275 262 199 212 199 197 201 200 186 191 196 197 199 203 205 204 201 211 294 326 329 337 337 335 336 336 334 335 339 337 336 335 330 328 326 323 324 325 327 323 321 331
202 182 193 208 329 248 331 277 271 242 184 185 204 203 195 194 192 194 201 208 210 212 209 206 212 291 313 323 331 333 338 338 338 334 333 335 336 335 334 331 329 326 326 323 324 326 325 317 320
217 169 121 110 66 239 46 284 295 225 240 220 207 196 194 191 190 195 203 213 215 215 211 203 210 274 303 323 332 339 335 328 327 330 331 332 336 334 333 332 329 324 324 321 322 317 319 318 309
208 102 97 90 95 12 232 195 270 15 259 234 220 207 204 196 192 197 205 216 217 211 201 195 203 275 307 328 333 335 332 330 331 332 331 332 333 333 333 332 329 326 324 320 316 316 315 310 305
139 75 52 55 86 320 216 162 279 206 218 248 201 204 199 191 191 199 215 217 204 195 187 184 220 286 319 327 333 335 336 335 333 332 331 330 328 330 329 330 327 326 320 316 314 314 309 305 303
92 89 319 338 12 228 149 128 248 242 225 224 216 212 191 183 182 191 181 183 182 177 176 185 245 308 325 329 333 335 335 333 331 330 330 327 324 324 326 326 325 320 320 319 315 311 308 304 302
179 167 169 219 207 264 332 236 251 194 211 301 288 242 171 177 182 189 181 183 173 169 169 196 271 319 327 331 332 333 333 332 328 329 327 325 324 324 324 321 319 321 321 318 314 309 303 300 296
189 191 161 106 61 47 231 290 291 174 222 245 150 139 179 179 179 169 161 165 159 156 161 184 318 329 333 332 332 330 331 329 329 329 326 324 323 320 315 320 319 318 315 313 308 301 295 297 290
167 158 85 7 187 247 281 278 246 248 222 213 210 201 181 153 150 132 138 148 146 145 141 51 345 339 334 331 330 329 327 330 330 326 324 323 322 322 321 318 316 313 310 307 304 297 293 288 289
145 190 93 134 162 182 250 259 215 231 208 197 204 198 188 169 143 137 132 139 137 127 90 9 348 338 332 333 332 330 331 331 327 324 324 324 322 321 319 313 309 310 308 306 301 297 294 281 285
174 185 163 148 210 187 141 272 197 275 287 189 195 193 157 144 139 131 133 134 121 92 23 355 342 334 336 335 333 333 331 329 326 325 325 324 322 319 314 308 306 305 303 301 299 296 292 288 285